Location: Arboucave
(43.6130°N, 0.4343°W)
Time: 07:50:26
(UTC+00:00)

CBERS-1 - Pass Details

Date: 17 November 2025
Orbit: 765 x 772 km, 98.8° (Epoch: 13 December)

Event Time Altitude Azimuth Distance (km) Brightness Sun altitude
Rises 17:01:22 0° 168° (SSE) 3,230 7.4 -5.3°
Reaches altitude 10° 17:03:39 10° 170° (S) 2,308 6.6 -5.6°
Maximum altitude 17:08:45 78° 256° (WSW) 795 4.3 -6.5°
Drops below altitude 10° 17:13:53 10° 343° (NNW) 2,327 6.5 -7.4°
Sets 17:16:13 0° 345° (NNW) 3,258 7.2 -7.8°
